Regional Weather Roundup
Issued by NWS

Home | Current Version | Previous Version | Text Only | Print | Product List | Glossary On
Versions: 1 2 3 4 5 6 7 8 9 10 11 12 13 14 15 16 17 18 19 20 21 22 23 24 25 26 27 28 29 30 31 32 33 34 35 36 37 38 39 40 41 42 43 44 45 46 47 48 49 50
000
ASUS43 KMPX 030510
RWRMN
WEATHER ROUNDUP FOR MINNESOTA
NATIONAL WEATHER SERVICE TWIN CITIES/CHANHASSEN MN
1200 AM CDT WED SEP 03 2014


NOTE: "FAIR" INDICATES FEW OR NO CLOUDS BELOW 12,000 FEET WITH NO
SIGNIFICANT WEATHER AND/OR OBSTRUCTIONS TO VISIBILITY. N/A MEANS
CURRENT SKY AND/OR WEATHER CONDITIONS ARE NOT AVAILABLE.

MNZ060>063-068>070-030600-
   Twin Cities Metro

CITY           SKY/WX    TMP DP  RH WIND       PRES   REMARKS
TWIN CITIES    PTCLDY    67  58  72 SW5       29.88R
ST PAUL        CLEAR     64  59  83 SE6       29.88R
CRYSTAL        CLEAR     67  56  67 S5        29.86R
BLAINE         CLEAR     64  57  77 S5        29.87S
LAKEVILLE      CLEAR     63  55  77 CALM      29.90R
EDEN PRAIRIE   CLEAR     65  58  78 SW9       29.88R
SOUTH ST PAUL  CLEAR     64  58  82 CALM      29.88S
LAKE ELMO      FAIR      59  55  88 S3        29.89S
$$
MNZ001>005-007-008-013>017-022>024-027-028-030600-
   Northwest Minnesota

CITY           SKY/WX    TMP DP  RH WIND       PRES   REMARKS
BEMIDJI        PTCLDY    57  54  90 S5        29.77S
HALLOCK        FOG       52  52 100 CALM      29.73S VSB 3/4
ROSEAU         PTCLDY    55  50  82 CALM      29.75R
WARROAD        MOCLDY    55  52  88 SW6       29.75R
THIEF RVR FALL CLEAR     55  52  88 CALM      29.74S
CROOKSTON      PTCLDY    59  54  82 SW3       29.74S
FOSSTON        PTCLDY    57  54  88 S6        29.76S
DETROIT LAKES  CLEAR     64  55  72 W7        29.81R
MOORHEAD       PTCLDY    68  57  68 S6        29.77S
PARK RAPIDS    MOCLDY    60  56  86 W3        29.79R
MAHNOMEN       FAIR      59  56  89 S9        29.76S
$$
MNZ006-009>011-018-025>026-030600-
   North Central Minnesota

CITY           SKY/WX    TMP DP  RH WIND       PRES   REMARKS
BAUDETTE       CLEAR     56  52  86 SW6       29.74R
FLAG ISLAND    CLEAR     55  52  88 NW9       29.72R
INTL FALLS     MOCLDY    54  53  97 VRB3      29.74S
WASKISH        MOCLDY    55  54  94 E3        29.76R
BIG FORK       PTCLDY    55  54  94 CALM      29.79F
LONGVILLE      PTCLDY    61  55  82 CALM      29.79S
GRAND RAPIDS   MOCLDY    63  54  72 CALM      29.82R
CRANE LAKE     CLOUDY    55  54  94 CALM      29.78F
ORR            CLOUDY    55  54  94 S3        29.77F
COOK           RAIN      55  55 100 S3        29.82F
WALKER         FAIR      60  56  87 SW6       29.78S
$$
MNZ012-019>021-037-030600-
   Northeast Minnesota

CITY           SKY/WX    TMP DP  RH WIND       PRES   REMARKS
DULUTH         MOCLDY    63  53  70 SW9       29.82S
ELY            LGT RAIN  55  54  94 S3        29.82F
HIBBING        CLOUDY    55  53  93 CALM      29.83R
EVELETH        CLOUDY    57  54  88 CALM      29.84R
DULUTH HARBOR  PTCLDY    63  57  82 CALM      29.82S
TWO HARBORS    PTCLDY    54  48  82 CALM      29.80S
SILVER BAY     PTCLDY    48  48 100 CALM      29.80F
GRAND MARAIS     N/A     55  53  93 W5        29.80R
G MARAIS ARPRT MOCLDY    54  46  76 S8        29.83R
$$
MNZ029>031-032-039>041-046>048-054>057-064-030600-
   West Central Minnesota

CITY           SKY/WX    TMP DP  RH WIND       PRES   REMARKS
FERGUS FALLS   PTCLDY    63  54  72 S9        29.79S
MORRIS         PTCLDY    61  55  82 S7        29.80F
ALEXANDRIA     CLEAR     65  55  70 S10       29.83F
ELBOW LAKE     FAIR      59  56  88 S8        29.80R
WADENA         CLEAR     61  55  82 S7        29.80S
GLENWOOD       CLEAR     59  55  88 S9        29.84S
APPLETON       PTCLDY    64  55  72 S9        29.81S
BENSON         PTCLDY    61  55  82 S9        29.83S
ORTONVILLE     PTCLDY    59  55  88 S5        29.81S
MADISON        PTCLDY    61  57  88 S6        29.82F
WILLMAR        FAIR      63  55  77 CALM      29.87R
$$
MNZ033>034-036-042>043-049>051-058-059-030600-
   Central Minnesota

CITY           SKY/WX    TMP DP  RH WIND       PRES   REMARKS
ST CLOUD       CLEAR     63  57  81 S6        29.84S
SAUK CENTRE    FAIR      59  55  88 S10       29.84S
PAYNESVILLE    HVY RAIN  60  56  84 S7        29.86S
AITKIN         CLEAR     68  55  64 SW8       29.80S
PINE RIVER     CLEAR     64  55  72 SW3       29.83S
BRAINERD       CLEAR     61  55  81 S8        29.81F
STAPLES        CLEAR     63  54  72 SW8       29.81S
LONG PRAIRIE   FAIR      63  54  72 S8        29.83S
LITTLE FALLS   CLEAR     61  52  72 SE3       29.83S
LITCHFIELD     CLEAR     64  59  82 S3        29.87S
BUFFALO        CLEAR     64  56  76 S3        29.88R
MAPLE LAKE     CLEAR     64  59  83 S5        29.87S
$$
MNZ037-044-045-052-053-030600-
   East Central Minnesota

CITY           SKY/WX    TMP DP  RH WIND       PRES   REMARKS
PRINCETON      CLEAR     64  57  77 S3        29.86R
MORA           CLEAR     59  52  77 SW5       29.86S
CAMBRIDGE      CLEAR     64  54  68 S5        29.84S
RUSH CITY      PTCLDY    63  55  75 SW3       29.85S
MOOSE LAKE     MOCLDY    59  54  82 S5        29.81S
HINCKLEY       FAIR      59  55  88 SW3       29.84S
CLOQUET        CLOUDY    63  54  72 SW3       29.82S
MCGREGOR       PTCLDY    63  55  77 S5        29.81S
$$
MNZ071>073-080-081-089-090-097-098-030600-
   Southwest Minnesota

CITY           SKY/WX    TMP DP  RH WIND       PRES   REMARKS
MONTEVIDEO     PTCLDY    64  57  77 SW10G16   29.84F
GRANITE FALLS  PTCLDY    61  57  86 S9        29.86F
CANBY          CLEAR     66  56  69 S10G16    29.84F
MARSHALL       CLEAR     63  54  72 S9        29.85F
REDWOOD FALLS  PTCLDY    61  57  87 S10       29.87F
OLIVIA         MOCLDY    63  55  77 S6        29.86F
PIPESTONE      PTCLDY    59  55  88 SE5       29.89S
WINDOM         CLEAR     63  55  77 S6        29.92S
WORTHINGTON    PTCLDY    61  57  88 S7        29.93S
JACKSON        PTCLDY    59  55  88 S6        29.93S
TRACY          CLEAR     64  57  76 S13       29.88S
SLAYTON        PTCLDY    59  56  91 CALM      29.91S
$$
MNZ065>067-074>077-082>085-091>093-030600-
   South Central Minnesota

CITY           SKY/WX    TMP DP  RH WIND       PRES   REMARKS
MANKATO        CLEAR     63  54  72 S7        29.91R
NEW ULM        PTCLDY    61  57  88 S7        29.90S
ST JAMES       PTCLDY    59  55  88 S5        29.92S
FAIRMONT       PTCLDY    59  54  82 S6        29.92S
GLENCOE        CLEAR     64  56  76 S3        29.88S
FARIBAULT      CLEAR     61  55  82 CALM      29.91S
OWATONNA       PTCLDY    63  57  82 S7        29.92S
WASECA         PTCLDY    55  52  88 S3        29.94R
ALBERT LEA     MOCLDY    64  61  88 CALM      29.93S
$$
MNZ078>079-086>088-094>096-030600-
   Southeast Minnesota

CITY           SKY/WX    TMP DP  RH WIND       PRES   REMARKS
ROCHESTER      PTCLDY    58  55  90 S6        29.94S
RED WING       CLEAR     57  57 100 CALM      29.89S
STANTON        CLEAR     59  56  88 S3        29.89S
DODGE CENTER   PTCLDY    61  57  88 S5        29.93S
WINONA         CLEAR     61  61 100 CALM      29.92S
AUSTIN         MOCLDY    59  55  88 S5        29.94S
PRESTON        CLEAR     60  60  99 CALM      29.95R
$$
ABBREVIATIONS USED IN REMARKS
   TC - TEMPERATURES IN CELSIUS
  WCI - WIND CHILL INDEX
   HX - HEAT INDEX
  VSB - VISIBILITY
$$


USA.gov is the U.S. government's official web portal to all federal, state and local government web resources and services.